date,time,SUV Intensity [MED/Hr],UV Index,Daily total [MED],Since Last [MED]
15/10/2023,00:06:04,0.000,0.0,0.0,0.0
15/10/2023,00:07:04,0.000,0.0,0.0,0.0
15/10/2023,00:08:04,-0.001,0.0,0.0,0.0
15/10/2023,00:09:03,0.000,0.0,0.0,0.0
15/10/2023,00:10:04,0.000,0.0,0.0,0.0
15/10/2023,00:11:04,0.000,0.0,0.0,0.0
15/10/2023,00:12:04,0.000,0.0,0.0,0.0
15/10/2023,00:13:04,0.000,0.0,0.0,0.0
15/10/2023,00:14:04,0.000,0.0,0.0,0.0
15/10/2023,00:15:04,-0.000,0.0,0.0,0.0
15/10/2023,00:16:04,0.000,0.0,0.0,0.0
15/10/2023,00:17:04,-0.001,0.0,0.0,0.0
15/10/2023,00:18:04,0.000,0.0,0.0,0.0
15/10/2023,00:19:04,0.000,0.0,0.0,0.0
15/10/2023,00:20:04,0.000,0.0,0.0,0.0
15/10/2023,00:21:04,0.000,0.0,0.0,0.0
15/10/2023,00:22:04,0.000,0.0,0.0,0.0
15/10/2023,00:23:04,0.000,0.0,0.0,0.0
15/10/2023,00:24:05,0.000,0.0,0.0,0.0
15/10/2023,00:25:04,0.000,0.0,0.0,0.0
15/10/2023,00:26:04,0.000,0.0,0.0,0.0
15/10/2023,00:27:04,0.000,0.0,0.0,0.0
15/10/2023,00:28:04,0.000,0.0,0.0,0.0
15/10/2023,00:29:05,0.000,0.0,0.0,0.0
15/10/2023,00:30:04,0.000,0.0,0.0,0.0
15/10/2023,00:31:04,0.000,0.0,0.0,0.0
15/10/2023,00:32:04,0.000,0.0,0.0,0.0
15/10/2023,00:33:05,-0.000,0.0,0.0,0.0
15/10/2023,00:34:05,0.000,0.0,0.0,0.0
15/10/2023,00:35:04,0.000,0.0,0.0,0.0
15/10/2023,00:36:04,0.000,0.0,0.0,0.0
15/10/2023,00:37:05,0.000,0.0,0.0,0.0
15/10/2023,00:38:05,0.000,0.0,0.0,0.0
15/10/2023,00:39:05,0.000,0.0,0.0,0.0
15/10/2023,00:40:04,0.000,0.0,0.0,0.0
15/10/2023,00:41:05,0.000,0.0,0.0,0.0
15/10/2023,00:42:05,0.000,0.0,0.0,0.0
15/10/2023,00:43:05,0.000,0.0,0.0,0.0
15/10/2023,00:44:05,0.000,0.0,0.0,0.0
15/10/2023,00:45:05,0.000,0.0,0.0,0.0
15/10/2023,00:46:05,0.000,0.0,0.0,0.0
15/10/2023,00:47:05,0.000,0.0,0.0,0.0
15/10/2023,00:48:05,0.001,0.0,0.0,0.0
15/10/2023,00:49:05,0.000,0.0,0.0,0.0
15/10/2023,00:50:05,0.000,0.0,0.0,0.0
15/10/2023,00:51:05,0.000,0.0,0.0,0.0
15/10/2023,00:52:05,0.000,0.0,0.0,0.0
15/10/2023,00:53:05,0.000,0.0,0.0,0.0
15/10/2023,00:54:05,-0.001,0.0,0.0,0.0
15/10/2023,00:55:05,0.000,0.0,0.0,0.0
15/10/2023,00:56:06,0.000,0.0,0.0,0.0
15/10/2023,00:57:05,0.000,0.0,0.0,0.0
15/10/2023,00:58:05,0.000,0.0,0.0,0.0
15/10/2023,00:59:05,0.000,0.0,0.0,0.0
15/10/2023,01:00:06,0.000,0.0,0.0,0.0
15/10/2023,01:01:06,0.000,0.0,0.0,0.0
15/10/2023,01:02:06,0.000,0.0,0.0,0.0
15/10/2023,01:03:05,0.000,0.0,0.0,0.0
15/10/2023,01:04:05,0.000,0.0,0.0,0.0
15/10/2023,01:05:06,0.000,0.0,0.0,0.0
15/10/2023,01:06:06,0.000,0.0,0.0,0.0
15/10/2023,01:07:06,0.000,0.0,0.0,0.0
15/10/2023,01:08:05,0.000,0.0,0.0,0.0
15/10/2023,01:09:05,0.000,0.0,0.0,0.0
15/10/2023,01:10:06,0.000,0.0,0.0,0.0
15/10/2023,01:11:06,0.000,0.0,0.0,0.0
15/10/2023,01:12:06,0.000,0.0,0.0,0.0
15/10/2023,01:13:06,0.000,0.0,0.0,0.0
15/10/2023,01:14:06,0.000,0.0,0.0,0.0
15/10/2023,01:15:06,0.000,0.0,0.0,0.0
15/10/2023,01:16:06,0.000,0.0,0.0,0.0
15/10/2023,01:17:06,0.000,0.0,0.0,0.0
15/10/2023,01:18:06,0.000,0.0,0.0,0.0
15/10/2023,01:19:06,-0.000,0.0,0.0,0.0
15/10/2023,01:20:06,0.000,0.0,0.0,0.0
15/10/2023,01:21:06,0.000,0.0,0.0,0.0
15/10/2023,01:22:06,0.000,0.0,0.0,0.0
15/10/2023,01:23:06,0.000,0.0,0.0,0.0
15/10/2023,01:24:07,0.000,0.0,0.0,0.0
15/10/2023,01:25:06,0.001,0.0,0.0,0.0
15/10/2023,01:26:06,0.000,0.0,0.0,0.0
15/10/2023,01:27:06,0.000,0.0,0.0,0.0
15/10/2023,01:28:07,0.000,0.0,0.0,0.0
15/10/2023,01:29:06,0.000,0.0,0.0,0.0
15/10/2023,01:30:06,0.000,0.0,0.0,0.0
15/10/2023,01:31:07,0.000,0.0,0.0,0.0
15/10/2023,01:32:07,0.000,0.0,0.0,0.0
15/10/2023,01:33:07,0.000,0.0,0.0,0.0
15/10/2023,01:34:06,0.000,0.0,0.0,0.0
15/10/2023,01:35:06,0.000,0.0,0.0,0.0
15/10/2023,01:36:07,0.000,0.0,0.0,0.0
15/10/2023,01:37:07,0.000,0.0,0.0,0.0
15/10/2023,01:38:07,0.000,0.0,0.0,0.0
15/10/2023,01:39:06,0.000,0.0,0.0,0.0
15/10/2023,01:40:07,0.000,0.0,0.0,0.0
15/10/2023,01:41:07,0.000,0.0,0.0,0.0
15/10/2023,01:42:07,0.000,0.0,0.0,0.0
15/10/2023,01:43:07,0.000,0.0,0.0,0.0
15/10/2023,01:44:06,0.000,0.0,0.0,0.0
15/10/2023,01:45:07,0.000,0.0,0.0,0.0
15/10/2023,01:46:07,0.000,0.0,0.0,0.0
15/10/2023,01:47:07,0.000,0.0,0.0,0.0
15/10/2023,01:48:07,0.000,0.0,0.0,0.0
15/10/2023,01:49:07,0.000,0.0,0.0,0.0
15/10/2023,01:50:07,0.000,0.0,0.0,0.0
15/10/2023,01:51:07,0.000,0.0,0.0,0.0
15/10/2023,01:52:07,0.000,0.0,0.0,0.0
15/10/2023,01:53:07,0.000,0.0,0.0,0.0
15/10/2023,01:54:08,0.000,0.0,0.0,0.0
15/10/2023,01:55:07,0.000,0.0,0.0,0.0
15/10/2023,01:56:07,0.000,0.0,0.0,0.0
15/10/2023,01:57:07,0.000,0.0,0.0,0.0
15/10/2023,01:58:08,0.000,0.0,0.0,0.0
15/10/2023,01:59:07,0.000,0.0,0.0,0.0
15/10/2023,02:00:07,0.000,0.0,0.0,0.0
15/10/2023,02:01:07,0.000,0.0,0.0,0.0
15/10/2023,02:02:08,0.000,0.0,0.0,0.0
15/10/2023,02:03:08,0.000,0.0,0.0,0.0
15/10/2023,02:04:07,0.000,0.0,0.0,0.0
15/10/2023,02:05:07,0.000,0.0,0.0,0.0
15/10/2023,02:06:08,0.000,0.0,0.0,0.0
15/10/2023,02:07:08,0.000,0.0,0.0,0.0
15/10/2023,02:08:08,0.000,0.0,0.0,0.0
15/10/2023,02:09:07,0.000,0.0,0.0,0.0
15/10/2023,02:10:08,0.000,0.0,0.0,0.0
15/10/2023,02:11:08,0.000,0.0,0.0,0.0
15/10/2023,02:12:08,0.000,0.0,0.0,0.0
15/10/2023,02:13:08,0.000,0.0,0.0,0.0
15/10/2023,02:14:08,0.000,0.0,0.0,0.0
15/10/2023,02:15:08,0.000,0.0,0.0,0.0
15/10/2023,02:16:08,0.000,0.0,0.0,0.0
15/10/2023,02:17:08,0.000,0.0,0.0,0.0
15/10/2023,02:18:08,0.000,0.0,0.0,0.0
15/10/2023,02:19:08,0.000,0.0,0.0,0.0
15/10/2023,02:20:08,0.000,0.0,0.0,0.0
15/10/2023,02:21:08,0.000,0.0,0.0,0.0
15/10/2023,02:22:08,0.000,0.0,0.0,0.0
15/10/2023,02:23:08,0.000,0.0,0.0,0.0
15/10/2023,02:24:09,0.000,0.0,0.0,0.0
15/10/2023,02:25:08,0.000,0.0,0.0,0.0
15/10/2023,02:26:08,0.000,0.0,0.0,0.0
15/10/2023,02:27:08,0.000,0.0,0.0,0.0
15/10/2023,02:28:09,0.000,0.0,0.0,0.0
15/10/2023,02:29:08,0.000,0.0,0.0,0.0
15/10/2023,02:30:08,0.000,0.0,0.0,0.0
15/10/2023,02:31:08,0.000,0.0,0.0,0.0
15/10/2023,02:32:09,0.000,0.0,0.0,0.0
15/10/2023,02:33:10,0.000,0.0,0.0,0.0
15/10/2023,02:34:09,0.000,0.0,0.0,0.0
15/10/2023,02:35:08,0.000,0.0,0.0,0.0
15/10/2023,02:36:09,0.000,0.0,0.0,0.0
15/10/2023,02:37:09,0.000,0.0,0.0,0.0
15/10/2023,02:38:09,0.000,0.0,0.0,0.0
15/10/2023,02:39:08,0.000,0.0,0.0,0.0
15/10/2023,02:40:09,0.000,0.0,0.0,0.0
15/10/2023,02:41:09,0.000,0.0,0.0,0.0
15/10/2023,02:42:09,0.000,0.0,0.0,0.0
15/10/2023,02:43:09,0.000,0.0,0.0,0.0
15/10/2023,02:44:08,0.000,0.0,0.0,0.0
15/10/2023,02:45:09,0.000,0.0,0.0,0.0
15/10/2023,02:46:09,0.000,0.0,0.0,0.0
15/10/2023,02:47:09,0.000,0.0,0.0,0.0
15/10/2023,02:48:09,0.000,0.0,0.0,0.0
15/10/2023,02:49:09,0.000,0.0,0.0,0.0
15/10/2023,02:50:09,0.001,0.0,0.0,0.0
15/10/2023,02:51:09,0.000,0.0,0.0,0.0
15/10/2023,02:52:09,0.000,0.0,0.0,0.0
15/10/2023,02:53:09,0.000,0.0,0.0,0.0
15/10/2023,02:54:10,0.000,0.0,0.0,0.0
15/10/2023,02:55:09,0.000,0.0,0.0,0.0
15/10/2023,02:56:09,0.000,0.0,0.0,0.0
15/10/2023,02:57:09,0.000,0.0,0.0,0.0
15/10/2023,02:58:10,0.000,0.0,0.0,0.0
15/10/2023,02:59:09,0.000,0.0,0.0,0.0
15/10/2023,03:00:09,0.000,0.0,0.0,0.0
15/10/2023,03:01:09,0.000,0.0,0.0,0.0
15/10/2023,03:02:10,0.000,0.0,0.0,0.0
15/10/2023,03:03:10,0.000,0.0,0.0,0.0
15/10/2023,03:04:10,0.000,0.0,0.0,0.0
15/10/2023,03:05:09,0.000,0.0,0.0,0.0
15/10/2023,03:06:09,0.000,0.0,0.0,0.0
15/10/2023,03:07:10,0.000,0.0,0.0,0.0
15/10/2023,03:08:11,0.000,0.0,0.0,0.0
15/10/2023,03:09:10,0.000,0.0,0.0,0.0
15/10/2023,03:10:10,0.000,0.0,0.0,0.0
15/10/2023,03:11:09,0.000,0.0,0.0,0.0
15/10/2023,03:12:09,0.000,0.0,0.0,0.0
15/10/2023,03:13:10,0.000,0.0,0.0,0.0
15/10/2023,03:14:10,0.000,0.0,0.0,0.0
15/10/2023,03:15:10,0.000,0.0,0.0,0.0
15/10/2023,03:16:10,0.001,0.0,0.0,0.0
15/10/2023,03:17:10,0.000,0.0,0.0,0.0
15/10/2023,03:18:10,0.000,0.0,0.0,0.0
15/10/2023,03:19:10,0.000,0.0,0.0,0.0
15/10/2023,03:20:10,0.000,0.0,0.0,0.0
15/10/2023,03:21:11,0.000,0.0,0.0,0.0
15/10/2023,03:22:10,0.000,0.0,0.0,0.0
15/10/2023,03:23:10,0.000,0.0,0.0,0.0
15/10/2023,03:24:10,0.000,0.0,0.0,0.0
15/10/2023,03:25:11,0.000,0.0,0.0,0.0
15/10/2023,03:26:10,0.000,0.0,0.0,0.0
15/10/2023,03:27:10,0.000,0.0,0.0,0.0
15/10/2023,03:28:10,0.000,0.0,0.0,0.0
15/10/2023,03:29:11,0.000,0.0,0.0,0.0
15/10/2023,03:30:11,0.000,0.0,0.0,0.0
15/10/2023,03:31:10,0.000,0.0,0.0,0.0
15/10/2023,03:32:10,0.000,0.0,0.0,0.0
15/10/2023,03:33:11,0.000,0.0,0.0,0.0
15/10/2023,03:34:11,0.000,0.0,0.0,0.0
15/10/2023,03:35:11,0.000,0.0,0.0,0.0
15/10/2023,03:36:10,0.000,0.0,0.0,0.0
15/10/2023,03:37:10,0.000,0.0,0.0,0.0
15/10/2023,03:38:11,0.000,0.0,0.0,0.0
15/10/2023,03:39:11,0.000,0.0,0.0,0.0
15/10/2023,03:40:11,0.000,0.0,0.0,0.0
15/10/2023,03:41:10,0.000,0.0,0.0,0.0
15/10/2023,03:42:11,0.000,0.0,0.0,0.0
15/10/2023,03:43:11,0.000,0.0,0.0,0.0
15/10/2023,03:44:11,0.000,0.0,0.0,0.0
15/10/2023,03:45:10,0.001,0.0,0.0,0.0
15/10/2023,03:46:33,0.000,0.0,0.0,0.0
15/10/2023,03:47:11,0.000,0.0,0.0,0.0
15/10/2023,03:48:11,0.000,0.0,0.0,0.0
15/10/2023,03:49:11,0.001,0.0,0.0,0.0
15/10/2023,03:50:11,0.000,0.0,0.0,0.0
15/10/2023,03:51:12,0.001,0.0,0.0,0.0
15/10/2023,03:52:11,0.000,0.0,0.0,0.0
15/10/2023,03:53:11,0.001,0.0,0.0,0.0
15/10/2023,03:54:11,0.001,0.0,0.0,0.0
15/10/2023,03:55:11,0.001,0.0,0.0,0.0
15/10/2023,03:56:12,0.001,0.0,0.0,0.0
15/10/2023,03:57:11,0.002,0.0,0.0,0.0
15/10/2023,03:58:10,0.000,0.0,0.0,0.0
15/10/2023,03:59:34,0.000,0.0,0.0,0.0
15/10/2023,04:00:11,0.000,0.0,0.0,0.0
15/10/2023,04:01:11,0.000,0.0,0.0,0.0
15/10/2023,04:02:11,0.001,0.0,0.0,0.0
15/10/2023,04:03:11,0.000,0.0,0.0,0.0
15/10/2023,04:04:12,0.001,0.0,0.0,0.0
15/10/2023,04:05:12,0.000,0.0,0.0,0.0
15/10/2023,04:06:11,0.000,0.0,0.0,0.0
15/10/2023,04:07:11,0.000,0.0,0.0,0.0
15/10/2023,04:08:12,0.000,0.0,0.0,0.0
15/10/2023,04:09:12,0.001,0.0,0.0,0.0
15/10/2023,04:10:12,0.001,0.0,0.0,0.0
15/10/2023,04:11:11,0.001,0.0,0.0,0.0
15/10/2023,04:12:11,0.001,0.0,0.0,0.0
15/10/2023,04:13:12,0.001,0.0,0.0,0.0
15/10/2023,04:14:12,0.001,0.0,0.0,0.0
15/10/2023,04:15:12,0.001,0.0,0.0,0.0
15/10/2023,04:16:12,0.000,0.0,0.0,0.0
15/10/2023,04:17:12,0.001,0.0,0.0,0.0
15/10/2023,04:18:12,0.001,0.0,0.0,0.0
15/10/2023,04:19:12,0.001,0.0,0.0,0.0
15/10/2023,04:20:12,0.001,0.0,0.0,0.0
15/10/2023,04:21:12,0.000,0.0,0.0,0.0
15/10/2023,04:22:12,0.001,0.0,0.0,0.0
15/10/2023,04:23:12,0.000,0.0,0.0,0.0
15/10/2023,04:24:12,0.001,0.0,0.0,0.0
15/10/2023,04:25:12,0.001,0.0,0.0,0.0
15/10/2023,04:26:13,0.001,0.0,0.0,0.0
15/10/2023,04:27:12,0.000,0.0,0.0,0.0
15/10/2023,04:28:12,0.001,0.0,0.0,0.0
15/10/2023,04:29:12,0.000,0.0,0.0,0.0
15/10/2023,04:30:13,0.001,0.0,0.0,0.0
15/10/2023,04:31:13,0.001,0.0,0.0,0.0
15/10/2023,04:32:12,0.001,0.0,0.0,0.0
15/10/2023,04:33:12,0.000,0.0,0.0,0.0
15/10/2023,04:34:13,0.001,0.0,0.0,0.0
15/10/2023,04:35:13,0.001,0.0,0.0,0.0
15/10/2023,04:36:12,0.001,0.0,0.0,0.0
15/10/2023,04:37:12,0.001,0.0,0.0,0.0
15/10/2023,04:38:13,0.001,0.0,0.0,0.0
15/10/2023,04:39:13,0.000,0.0,0.0,0.0
15/10/2023,04:40:13,0.002,0.0,0.0,0.0
15/10/2023,04:41:12,0.002,0.0,0.0,0.0
15/10/2023,04:42:13,0.001,0.0,0.0,0.0
15/10/2023,04:43:13,0.001,0.0,0.0,0.0
15/10/2023,04:44:13,0.001,0.0,0.0,0.0
15/10/2023,04:45:13,0.000,0.0,0.0,0.0
15/10/2023,04:46:13,0.001,0.0,0.0,0.0
15/10/2023,04:47:13,0.000,0.0,0.0,0.0
15/10/2023,04:48:13,0.001,0.0,0.0,0.0
15/10/2023,04:49:13,0.001,0.0,0.0,0.0
15/10/2023,04:50:13,0.000,0.0,0.0,0.0
15/10/2023,04:51:13,0.001,0.0,0.0,0.0
15/10/2023,04:52:13,0.001,0.0,0.0,0.0
15/10/2023,04:53:13,0.001,0.0,0.0,0.0
15/10/2023,04:54:13,0.000,0.0,0.0,0.0
15/10/2023,04:55:14,0.000,0.0,0.0,0.0
15/10/2023,04:56:13,0.001,0.0,0.0,0.0
15/10/2023,04:57:13,0.001,0.0,0.0,0.0
15/10/2023,04:58:13,0.001,0.0,0.0,0.0
15/10/2023,04:59:14,0.001,0.0,0.0,0.0
15/10/2023,05:00:13,0.001,0.0,0.0,0.0
15/10/2023,05:01:13,0.001,0.0,0.0,0.0
15/10/2023,05:02:13,0.001,0.0,0.0,0.0
15/10/2023,05:03:14,0.000,0.0,0.0,0.0
15/10/2023,05:04:14,0.001,0.0,0.0,0.0
15/10/2023,05:05:14,0.000,0.0,0.0,0.0
15/10/2023,05:06:13,0.001,0.0,0.0,0.0
15/10/2023,05:07:14,0.001,0.0,0.0,0.0
15/10/2023,05:08:14,0.001,0.0,0.0,0.0
15/10/2023,05:09:14,0.001,0.0,0.0,0.0
15/10/2023,05:10:13,0.001,0.0,0.0,0.0
15/10/2023,05:11:14,0.001,0.0,0.0,0.0
15/10/2023,05:12:14,0.001,0.0,0.0,0.0
15/10/2023,05:13:14,0.001,0.0,0.0,0.0
15/10/2023,05:14:14,0.001,0.0,0.0,0.0
15/10/2023,05:15:13,0.001,0.0,0.0,0.0
15/10/2023,05:16:14,0.001,0.0,0.0,0.0
15/10/2023,05:17:14,0.001,0.0,0.0,0.0
15/10/2023,05:18:14,0.000,0.0,0.0,0.0
15/10/2023,05:19:14,0.001,0.0,0.0,0.0
15/10/2023,05:20:14,0.001,0.0,0.0,0.0
15/10/2023,05:21:14,0.001,0.0,0.0,0.0
15/10/2023,05:22:14,0.001,0.0,0.0,0.0
15/10/2023,05:23:14,0.000,0.0,0.0,0.0
15/10/2023,05:24:14,0.001,0.0,0.0,0.0
15/10/2023,05:25:14,0.001,0.0,0.0,0.0
15/10/2023,05:26:14,0.001,0.0,0.0,0.0
15/10/2023,05:27:14,0.001,0.0,0.0,0.0
15/10/2023,05:28:15,0.001,0.0,0.0,0.0
15/10/2023,05:29:15,0.000,0.0,0.0,0.0
15/10/2023,05:30:14,0.000,0.0,0.0,0.0
15/10/2023,05:31:14,0.000,0.0,0.0,0.0
15/10/2023,05:32:15,0.000,0.0,0.0,0.0
15/10/2023,05:33:15,0.001,0.0,0.0,0.0
15/10/2023,05:34:14,0.001,0.0,0.0,0.0
15/10/2023,05:35:14,0.001,0.0,0.0,0.0
15/10/2023,05:36:15,0.000,0.0,0.0,0.0
15/10/2023,05:37:15,0.000,0.0,0.0,0.0
15/10/2023,05:38:14,0.001,0.0,0.0,0.0
15/10/2023,05:39:15,0.001,0.0,0.0,0.0
15/10/2023,05:40:15,0.001,0.0,0.0,0.0
15/10/2023,05:41:14,0.001,0.0,0.0,0.0
15/10/2023,05:42:14,0.001,0.0,0.0,0.0
15/10/2023,05:43:15,0.001,0.0,0.0,0.0
15/10/2023,05:44:15,0.000,0.0,0.0,0.0
15/10/2023,05:45:15,0.000,0.0,0.0,0.0
15/10/2023,05:46:15,0.000,0.0,0.0,0.0
15/10/2023,05:47:15,0.000,0.0,0.0,0.0
15/10/2023,05:48:15,0.002,0.0,0.0,0.0
15/10/2023,05:49:15,0.001,0.0,0.0,0.0
15/10/2023,05:50:15,0.001,0.0,0.0,0.0
15/10/2023,05:51:16,0.000,0.0,0.0,0.0
15/10/2023,05:52:15,0.000,0.0,0.0,0.0
15/10/2023,05:53:15,0.001,0.0,0.0,0.0
15/10/2023,05:54:16,0.000,0.0,0.0,0.0
15/10/2023,05:55:15,0.001,0.0,0.0,0.0
15/10/2023,05:56:15,0.001,0.0,0.0,0.0
15/10/2023,05:57:15,0.000,0.0,0.0,0.0
15/10/2023,05:58:16,0.001,0.0,0.0,0.0
15/10/2023,05:59:15,0.002,0.0,0.0,0.0
15/10/2023,06:00:15,0.000,0.0,0.0,0.0
15/10/2023,06:01:15,0.001,0.0,0.0,0.0
15/10/2023,06:02:16,0.000,0.0,0.0,0.0
15/10/2023,06:03:15,0.001,0.0,0.0,0.0
15/10/2023,06:04:15,0.001,0.0,0.0,0.0
15/10/2023,06:05:15,0.001,0.0,0.0,0.0
15/10/2023,06:06:16,0.001,0.0,0.0,0.0
15/10/2023,06:07:16,0.001,0.0,0.0,0.0
15/10/2023,06:08:15,0.001,0.0,0.0,0.0
15/10/2023,06:09:15,0.001,0.0,0.0,0.0
15/10/2023,06:10:16,0.001,0.0,0.0,0.0
15/10/2023,06:11:16,0.000,0.0,0.0,0.0
15/10/2023,06:12:16,0.002,0.0,0.0,0.0
15/10/2023,06:13:16,0.001,0.0,0.0,0.0
15/10/2023,06:14:16,0.002,0.0,0.0,0.0
15/10/2023,06:15:16,0.002,0.0,0.0,0.0
15/10/2023,06:16:16,0.001,0.0,0.0,0.0
15/10/2023,06:17:16,0.001,0.0,0.0,0.0
15/10/2023,06:18:15,0.001,0.0,0.0,0.0
15/10/2023,06:19:16,0.001,0.0,0.0,0.0
15/10/2023,06:20:16,0.002,0.0,0.0,0.0
15/10/2023,06:21:16,0.002,0.0,0.0,0.0
15/10/2023,06:22:16,0.001,0.0,0.0,0.0
15/10/2023,06:23:16,0.002,0.0,0.0,0.0
15/10/2023,06:24:16,0.002,0.0,0.0,0.0
15/10/2023,06:25:16,0.002,0.0,0.0,0.0
15/10/2023,06:26:16,0.002,0.0,0.0,0.0
15/10/2023,06:27:16,0.002,0.0,0.0,0.0
15/10/2023,06:28:17,0.002,0.0,0.0,0.0
15/10/2023,06:29:16,0.003,0.0,0.0,0.0
15/10/2023,06:30:16,0.002,0.0,0.0,0.0
15/10/2023,06:31:16,0.004,0.0,0.0,0.0
15/10/2023,06:32:17,0.005,0.0,0.0,0.0
15/10/2023,06:33:17,0.003,0.0,0.0,0.0
15/10/2023,06:34:16,0.004,0.0,0.0,0.0
15/10/2023,06:35:16,0.004,0.0,0.0,0.0
15/10/2023,06:36:17,0.004,0.0,0.0,0.0
15/10/2023,06:37:17,0.005,0.0,0.0,0.0
15/10/2023,06:38:16,0.005,0.0,0.0,0.0
15/10/2023,06:39:16,0.005,0.0,0.0,0.0
15/10/2023,06:40:17,0.006,0.0,0.0,0.0
15/10/2023,06:41:17,0.006,0.0,0.0,0.0
15/10/2023,06:42:17,0.006,0.0,0.0,0.0
15/10/2023,06:43:17,0.007,0.0,0.0,0.0
15/10/2023,06:44:17,0.006,0.0,0.0,0.0
15/10/2023,06:45:17,0.007,0.0,0.0,0.0
15/10/2023,06:46:17,0.008,0.0,0.001,0.001
15/10/2023,06:47:17,0.008,0.0,0.001,0.0
15/10/2023,06:48:16,0.009,0.0,0.001,0.0
15/10/2023,06:49:17,0.009,0.0,0.001,0.0
15/10/2023,06:50:17,0.009,0.0,0.001,0.0
15/10/2023,06:51:17,0.009,0.0,0.001,0.0
15/10/2023,06:52:17,0.011,0.0,0.001,0.0
15/10/2023,06:53:18,0.011,0.0,0.002,0.001
15/10/2023,06:54:17,0.011,0.0,0.002,0.0
15/10/2023,06:55:17,0.012,0.0,0.002,0.0
15/10/2023,06:56:17,0.012,0.0,0.002,0.0
15/10/2023,06:57:17,0.013,0.0,0.002,0.0
15/10/2023,06:58:18,0.013,0.0,0.003,0.001
15/10/2023,06:59:18,0.015,0.0,0.003,0.0
15/10/2023,07:00:17,0.015,0.0,0.003,0.0
15/10/2023,07:01:17,0.015,0.0,0.003,0.0
15/10/2023,07:02:17,0.015,0.0,0.004,0.001
15/10/2023,07:03:18,0.016,0.0,0.004,0.0
15/10/2023,07:04:18,0.017,0.0,0.004,0.0
15/10/2023,07:05:17,0.018,0.0,0.004,0.0
15/10/2023,07:06:17,0.019,0.0,0.005,0.001
15/10/2023,07:07:18,0.019,0.0,0.005,0.0
15/10/2023,07:08:18,0.020,0.0,0.005,0.0
15/10/2023,07:09:17,0.021,0.0,0.006,0.001
15/10/2023,07:10:17,0.021,0.0,0.006,0.0
15/10/2023,07:11:18,0.022,0.0,0.006,0.0
15/10/2023,07:12:18,0.023,0.0,0.007,0.001
15/10/2023,07:13:18,0.023,0.0,0.007,0.0
15/10/2023,07:14:18,0.024,0.0,0.008,0.001
15/10/2023,07:15:17,0.025,0.0,0.008,0.0
15/10/2023,07:16:18,0.026,0.0,0.008,0.0
15/10/2023,07:17:18,0.027,0.0,0.009,0.001
15/10/2023,07:18:18,0.028,0.0,0.009,0.0
15/10/2023,07:19:18,0.029,0.0,0.01,0.001
15/10/2023,07:20:18,0.030,0.0,0.01,0.0
15/10/2023,07:21:18,0.031,0.0,0.011,0.001
15/10/2023,07:22:18,0.031,0.0,0.011,0.0
15/10/2023,07:23:18,0.032,0.0,0.012,0.001
15/10/2023,07:24:19,0.034,0.0,0.012,0.0
15/10/2023,07:25:18,0.034,0.0,0.013,0.001
15/10/2023,07:26:18,0.036,0.0,0.014,0.001
15/10/2023,07:27:18,0.037,0.0,0.014,0.0
15/10/2023,07:28:18,0.038,0.0,0.015,0.001
15/10/2023,07:29:19,0.039,0.0,0.015,0.0
15/10/2023,07:30:19,0.041,0.0,0.016,0.001
15/10/2023,07:31:18,0.041,0.0,0.017,0.001
15/10/2023,07:32:18,0.043,0.0,0.017,0.0
15/10/2023,07:33:19,0.043,0.0,0.018,0.001
15/10/2023,07:34:19,0.045,0.0,0.019,0.001
15/10/2023,07:35:19,0.047,0.0,0.02,0.001
15/10/2023,07:36:19,0.048,0.0,0.02,0.0
15/10/2023,07:37:18,0.049,0.0,0.021,0.001
15/10/2023,07:38:19,0.050,0.0,0.022,0.001
15/10/2023,07:39:19,0.052,0.0,0.023,0.001
15/10/2023,07:40:18,0.053,0.0,0.024,0.001
15/10/2023,07:41:18,0.055,0.0,0.025,0.001
15/10/2023,07:42:19,0.055,0.0,0.026,0.001
15/10/2023,07:43:19,0.058,0.0,0.027,0.001
15/10/2023,07:44:19,0.059,0.0,0.028,0.001
15/10/2023,07:45:18,0.060,0.0,0.029,0.001
15/10/2023,07:46:19,0.063,0.0,0.03,0.001
15/10/2023,07:47:19,0.064,0.0,0.031,0.001
15/10/2023,07:48:19,0.065,0.0,0.032,0.001
15/10/2023,07:49:19,0.067,0.0,0.033,0.001
15/10/2023,07:50:19,0.070,0.0,0.034,0.001
15/10/2023,07:51:19,0.071,0.0,0.035,0.001
15/10/2023,07:52:19,0.072,0.0,0.036,0.001
15/10/2023,07:53:19,0.073,0.0,0.038,0.002
15/10/2023,07:54:19,0.076,0.0,0.039,0.001
15/10/2023,07:55:19,0.076,0.0,0.04,0.001
15/10/2023,07:56:19,0.079,0.0,0.041,0.001
15/10/2023,07:57:19,0.081,0.0,0.043,0.002
15/10/2023,07:58:20,0.083,0.0,0.044,0.001
15/10/2023,07:59:20,0.084,0.0,0.045,0.001
15/10/2023,08:00:19,0.086,0.0,0.047,0.002
15/10/2023,08:01:19,0.088,0.0,0.048,0.001
15/10/2023,08:02:19,0.089,0.0,0.05,0.002
15/10/2023,08:03:20,0.092,0.0,0.051,0.001
15/10/2023,08:04:19,0.094,0.0,0.053,0.002
15/10/2023,08:05:19,0.096,0.0,0.054,0.001
15/10/2023,08:06:20,0.098,0.0,0.056,0.002
15/10/2023,08:07:20,0.100,0.0,0.058,0.002
15/10/2023,08:08:19,0.102,0.0,0.059,0.001
15/10/2023,08:09:19,0.105,0.0,0.061,0.002
15/10/2023,08:10:20,0.106,0.0,0.063,0.002
15/10/2023,08:11:20,0.109,0.0,0.065,0.002
15/10/2023,08:12:20,0.111,0.0,0.066,0.001
15/10/2023,08:13:19,0.113,0.0,0.068,0.002
15/10/2023,08:14:20,0.115,0.0,0.07,0.002
15/10/2023,08:15:20,0.117,0.0,0.072,0.002
15/10/2023,08:16:20,0.119,0.0,0.074,0.002
15/10/2023,08:17:20,0.122,0.0,0.076,0.002
15/10/2023,08:18:20,0.125,0.0,0.078,0.002
15/10/2023,08:19:20,0.127,0.0,0.08,0.002
15/10/2023,08:20:20,0.129,0.0,0.082,0.002
15/10/2023,08:21:20,0.132,0.0,0.085,0.003
15/10/2023,08:22:20,0.134,0.0,0.087,0.002
15/10/2023,08:23:20,0.136,0.0,0.089,0.002
15/10/2023,08:24:20,0.139,0.0,0.091,0.002
15/10/2023,08:25:21,0.142,0.0,0.094,0.003
15/10/2023,08:26:20,0.144,0.0,0.096,0.002
15/10/2023,08:27:20,0.146,0.0,0.099,0.003
15/10/2023,08:28:20,0.149,0.0,0.101,0.002
15/10/2023,08:29:21,0.153,0.0,0.104,0.003
15/10/2023,08:30:20,0.153,0.0,0.106,0.002
15/10/2023,08:31:20,0.157,0.0,0.109,0.003
15/10/2023,08:32:20,0.160,0.0,0.111,0.002
15/10/2023,08:33:21,0.162,0.0,0.114,0.003
15/10/2023,08:34:21,0.165,0.0,0.117,0.003
15/10/2023,08:35:20,0.167,0.0,0.12,0.003
15/10/2023,08:36:20,0.171,0.0,0.122,0.002
15/10/2023,08:37:21,0.174,0.0,0.125,0.003
15/10/2023,08:38:21,0.178,0.0,0.128,0.003
15/10/2023,08:39:20,0.179,0.0,0.131,0.003
15/10/2023,08:40:21,0.182,0.0,0.134,0.003
15/10/2023,08:41:21,0.185,0.0,0.137,0.003
15/10/2023,08:42:21,0.189,0.0,0.14,0.003
15/10/2023,08:43:20,0.191,0.0,0.143,0.003
15/10/2023,08:44:21,0.194,0.0,0.147,0.004
15/10/2023,08:45:21,0.199,0.0,0.15,0.003
15/10/2023,08:46:21,0.200,0.0,0.153,0.003
15/10/2023,08:47:21,0.205,0.0,0.157,0.004
15/10/2023,08:48:21,0.207,0.0,0.16,0.003
15/10/2023,08:49:21,0.210,0.0,0.164,0.004
15/10/2023,08:50:21,0.213,0.0,0.167,0.003
15/10/2023,08:51:21,0.217,0.0,0.171,0.004
15/10/2023,08:52:21,0.218,1.0,0.174,0.003
15/10/2023,08:53:21,0.222,1.0,0.178,0.004
15/10/2023,08:54:21,0.226,1.0,0.182,0.004
15/10/2023,08:55:21,0.230,1.0,0.186,0.004
15/10/2023,08:56:21,0.232,1.0,0.189,0.003
15/10/2023,08:57:21,0.236,1.0,0.193,0.004
15/10/2023,08:58:21,0.240,1.0,0.197,0.004
15/10/2023,08:59:21,0.244,1.0,0.201,0.004
15/10/2023,09:00:21,0.248,1.0,0.205,0.004
15/10/2023,09:01:22,0.251,1.0,0.21,0.005
15/10/2023,09:02:21,0.253,1.0,0.214,0.004
15/10/2023,09:03:21,0.257,1.0,0.218,0.004
15/10/2023,09:04:21,0.260,1.0,0.222,0.004
15/10/2023,09:05:22,0.264,1.0,0.227,0.005
15/10/2023,09:06:22,0.267,1.0,0.231,0.004
15/10/2023,09:07:21,0.270,1.0,0.236,0.005
15/10/2023,09:08:21,0.273,1.0,0.24,0.004
15/10/2023,09:09:22,0.278,1.0,0.245,0.005
15/10/2023,09:10:22,0.280,1.0,0.249,0.004
15/10/2023,09:11:21,0.283,1.0,0.254,0.005
15/10/2023,09:12:22,0.289,1.0,0.259,0.005
15/10/2023,09:13:22,0.292,1.0,0.264,0.005
15/10/2023,09:14:22,0.296,1.0,0.269,0.005
15/10/2023,09:15:22,0.300,1.0,0.274,0.005
15/10/2023,09:16:22,0.302,1.0,0.279,0.005
15/10/2023,09:17:22,0.306,1.0,0.284,0.005
15/10/2023,09:18:22,0.310,1.0,0.289,0.005
15/10/2023,09:19:22,0.314,1.0,0.294,0.005
15/10/2023,09:20:22,0.318,1.0,0.299,0.005
15/10/2023,09:21:22,0.321,1.0,0.305,0.006
15/10/2023,09:22:22,0.325,1.0,0.31,0.005
15/10/2023,09:23:22,0.328,1.0,0.316,0.006
15/10/2023,09:24:22,0.332,1.0,0.321,0.005
15/10/2023,09:25:22,0.336,1.0,0.327,0.006
15/10/2023,09:26:22,0.339,1.0,0.332,0.005
15/10/2023,09:27:22,0.343,1.0,0.338,0.006
15/10/2023,09:28:23,0.346,1.0,0.344,0.006
15/10/2023,09:29:22,0.350,1.0,0.35,0.006
15/10/2023,09:30:22,0.354,1.0,0.355,0.005
15/10/2023,09:31:22,0.358,1.0,0.361,0.006
15/10/2023,09:32:23,0.361,1.0,0.367,0.006
15/10/2023,09:33:22,0.367,1.0,0.373,0.006
15/10/2023,09:34:22,0.369,1.0,0.38,0.007
15/10/2023,09:35:23,0.373,1.0,0.386,0.006
15/10/2023,09:36:23,0.377,1.0,0.392,0.006
15/10/2023,09:37:22,0.381,1.0,0.398,0.006
15/10/2023,09:38:22,0.384,1.0,0.405,0.007
15/10/2023,09:39:23,0.389,1.0,0.411,0.006
15/10/2023,09:40:23,0.393,1.0,0.418,0.007
15/10/2023,09:41:22,0.396,1.0,0.424,0.006
15/10/2023,09:42:23,0.400,1.0,0.431,0.007
15/10/2023,09:43:23,0.404,1.0,0.437,0.006
15/10/2023,09:44:23,0.408,1.0,0.444,0.007
15/10/2023,09:45:22,0.410,1.0,0.451,0.007
15/10/2023,09:46:23,0.414,1.0,0.458,0.007
15/10/2023,09:47:23,0.417,1.0,0.465,0.007
15/10/2023,09:48:23,0.421,1.0,0.472,0.007
15/10/2023,09:49:24,0.425,1.0,0.479,0.007
15/10/2023,09:50:23,0.429,1.0,0.486,0.007
15/10/2023,09:51:23,0.433,1.0,0.493,0.007
15/10/2023,09:52:23,0.436,1.0,0.501,0.008
15/10/2023,09:53:23,0.440,1.0,0.508,0.007
15/10/2023,09:54:23,0.444,1.0,0.515,0.007
15/10/2023,09:55:23,0.447,1.0,0.522,0.007
15/10/2023,09:56:23,0.450,1.0,0.53,0.008
15/10/2023,09:57:23,0.453,1.0,0.538,0.008
15/10/2023,09:58:24,0.454,1.0,0.545,0.007
15/10/2023,09:59:23,0.457,1.0,0.553,0.008
15/10/2023,10:00:23,0.463,1.0,0.56,0.007
15/10/2023,10:01:23,0.466,1.0,0.568,0.008
15/10/2023,10:02:23,0.470,1.0,0.576,0.008
15/10/2023,10:03:24,0.474,1.0,0.584,0.008
15/10/2023,10:04:23,0.476,1.0,0.592,0.008
15/10/2023,10:05:23,0.474,1.0,0.6,0.008
15/10/2023,10:06:23,0.485,1.0,0.608,0.008
15/10/2023,10:07:24,0.489,1.0,0.616,0.008
15/10/2023,10:08:24,0.492,1.0,0.624,0.008
15/10/2023,10:09:23,0.496,1.0,0.632,0.008
15/10/2023,10:10:23,0.500,1.0,0.641,0.009
15/10/2023,10:11:24,0.503,1.0,0.649,0.008
15/10/2023,10:12:24,0.506,1.0,0.657,0.008
15/10/2023,10:13:24,0.509,1.0,0.666,0.009
15/10/2023,10:14:23,0.513,1.0,0.674,0.008